Date String (YYYY-MM-DD hh:mm:ss) UTC,Instrument flags,Ambient pressure (hPa),Sample flow (lpm),Bypass flow (lpm),Sample temperature (°C),Ambient temperature (°C),ASC tube jacket temperature (°C),LED temperature (°C),Box temperature (°C),Sample RH (%),Span deviation,Mass concentration (μg/m³),Mass concentration (μg/m³),Mass concentration (μg/m³)
DateTimeUTC,F1_M11,P_M11,Q1_M11,Q2_M11,T1_M11,T2_M11,T3_M11,T4_M11,T5_M11,U1_M11,ZSPAN_M11,X0_M11,X2_M11,X1_M11
2022-06-02 00:00:00,,0829.6,5.00,0.00,28.6,27.6,00.0,37.4,30.5,20.3,0000.0,0005.57,0003.86,0003.70
2022-06-02 00:01:00,,0829.6,4.99,0.00,28.6,27.7,00.0,37.4,30.5,20.4,0000.0,0005.57,0003.86,0003.71
2022-06-02 00:02:00,,0829.6,5.00,0.00,28.6,27.7,00.0,37.4,30.5,20.4,0000.0,0005.76,0003.90,0003.73
2022-06-02 00:03:00,,0829.6,5.00,0.00,28.6,27.7,00.0,37.4,30.5,20.4,0000.0,0005.82,0003.93,0003.76
2022-06-02 00:04:00,,0829.5,4.99,0.00,28.6,27.7,00.0,37.5,30.5,20.3,0000.0,0005.89,0003.97,0003.81
2022-06-02 00:05:00,,0829.5,5.00,0.00,28.6,27.7,00.0,37.5,30.5,20.3,0000.0,0005.91,0004.01,0003.86
2022-06-02 00:06:00,,0829.6,5.01,0.00,28.6,27.7,00.0,37.5,30.5,20.7,0000.0,0006.09,0004.07,0003.88
2022-06-02 00:07:00,,0829.5,4.99,0.00,28.6,27.7,00.0,37.5,30.5,20.5,0000.0,0006.06,0004.08,0003.91
2022-06-02 00:08:00,,0829.5,4.99,0.00,28.6,27.7,00.0,37.5,30.5,20.3,0000.0,0006.41,0004.10,0003.93
2022-06-02 00:09:00,,0829.5,5.02,0.00,28.6,27.7,00.0,37.5,30.5,20.2,0000.0,0006.91,0004.12,0003.95
2022-06-02 00:10:00,,0829.5,5.00,0.00,28.6,27.7,00.0,37.5,30.5,20.2,0000.0,0006.84,0004.14,0003.96
2022-06-02 00:11:00,,0829.5,4.99,0.00,28.6,27.7,00.0,37.5,30.5,20.3,0000.0,0006.24,0004.12,0003.96
2022-06-02 00:12:00,,0829.5,5.00,0.00,28.6,27.7,00.0,37.5,30.5,20.3,0000.0,0006.30,0004.13,0003.97
2022-06-02 00:13:00,,0829.5,5.00,0.00,28.6,27.7,00.0,37.5,30.5,20.4,0000.0,0006.15,0004.11,0003.96
2022-06-02 00:14:00,,0829.5,5.00,0.00,28.6,27.7,00.0,37.5,30.5,20.4,0000.0,0006.06,0004.08,0003.93
2022-06-02 00:15:00,,0829.5,5.01,0.00,28.6,27.7,00.0,37.5,30.5,20.4,0000.0,0005.99,0004.04,0003.89
2022-06-02 00:16:00,,0829.5,5.00,0.00,28.6,27.7,00.0,37.5,30.5,20.5,0000.0,0006.02,0004.02,0003.86
2022-06-02 00:17:00,,0829.5,4.99,0.00,28.6,27.7,00.0,37.5,30.5,21.0,0000.0,0005.85,0003.96,0003.83
2022-06-02 00:18:00,,0829.5,5.00,0.00,28.7,27.7,00.0,37.5,30.5,20.9,0000.0,0005.98,0003.93,0003.78
2022-06-02 00:19:00,,0829.5,5.00,0.00,28.7,27.7,00.0,37.6,30.6,20.6,0000.0,0005.73,0003.91,0003.75
2022-06-02 00:20:00,,0829.5,5.00,0.00,28.7,27.8,00.0,37.6,30.6,20.6,0000.0,0005.21,0003.87,0003.71
2022-06-02 00:21:00,,0829.5,5.00,0.00,28.7,27.8,00.0,37.6,30.6,20.4,0000.0,0005.11,0003.83,0003.68
2022-06-02 00:22:00,,0829.5,5.01,0.00,28.7,27.8,00.0,37.6,30.6,20.3,0000.0,0005.16,0003.82,0003.65
2022-06-02 00:23:00,,0829.5,5.00,0.00,28.7,27.8,00.0,37.6,30.6,20.2,0000.0,0005.12,0003.79,0003.63
2022-06-02 00:24:00,,0829.5,4.99,0.00,28.7,27.8,00.0,37.6,30.6,20.3,0000.0,0005.17,0003.79,0003.61
2022-06-02 00:25:00,,0829.5,5.00,0.00,28.8,27.9,00.0,37.6,30.7,20.4,0000.0,0005.19,0003.78,0003.60
2022-06-02 00:26:00,,0829.5,5.01,0.00,28.8,27.9,00.0,37.6,30.7,20.4,0000.0,0005.18,0003.77,0003.59
2022-06-02 00:27:00,,0829.5,5.00,0.00,28.8,27.9,00.0,37.6,30.7,20.8,0000.0,0004.99,0003.73,0003.58
2022-06-02 00:28:00,,0829.5,4.99,0.00,28.8,27.9,00.0,37.6,30.7,21.0,0000.0,0004.92,0003.71,0003.56
2022-06-02 00:29:00,,0829.5,5.00,0.00,28.8,27.9,00.0,37.7,30.7,20.9,0000.0,0004.70,0003.69,0003.55
2022-06-02 00:30:00,,0829.5,5.00,0.00,28.8,27.9,00.0,37.7,30.7,21.0,0000.0,0004.58,0003.67,0003.54
2022-06-02 00:31:00,,0829.5,5.01,0.00,28.8,27.9,00.0,37.7,30.7,20.4,0000.0,0004.54,0003.65,0003.52
2022-06-02 00:32:00,,0829.5,5.02,0.00,28.8,28.0,00.0,37.7,30.7,20.2,0000.0,0004.47,0003.63,0003.51
2022-06-02 00:33:00,,0829.5,5.01,0.00,28.9,28.0,00.0,37.7,30.8,20.3,0000.0,0004.38,0003.61,0003.50
2022-06-02 00:34:00,,0829.5,5.00,0.00,28.9,28.0,00.0,37.7,30.8,20.3,0000.0,0004.33,0003.59,0003.48
2022-06-02 00:35:00,,0829.5,4.99,0.00,28.9,28.0,00.0,37.7,30.8,20.3,0000.0,0004.25,0003.58,0003.47
2022-06-02 00:36:00,,0829.6,4.98,0.00,28.9,28.0,00.0,37.7,30.8,20.2,0000.0,0004.23,0003.56,0003.47
2022-06-02 00:37:00,,0829.5,5.00,0.00,28.9,28.0,00.0,37.7,30.8,20.2,0000.0,0004.30,0003.57,0003.45
2022-06-02 00:38:00,,0829.5,5.00,0.00,28.9,28.0,00.0,37.7,30.8,20.1,0000.0,0004.26,0003.55,0003.44
2022-06-02 00:39:00,,0829.5,5.00,0.00,28.9,28.0,00.0,37.8,30.8,19.9,0000.0,0004.24,0003.54,0003.43
2022-06-02 00:40:00,,0829.5,4.99,0.00,28.9,28.0,00.0,37.8,30.8,19.9,0000.0,0004.26,0003.54,0003.41
2022-06-02 00:41:00,,0829.5,5.00,0.00,28.9,28.0,00.0,37.8,30.8,20.2,0000.0,0004.23,0003.52,0003.39
2022-06-02 00:42:00,,0829.5,4.99,0.00,28.9,28.1,00.0,37.8,30.8,20.0,0000.0,0004.18,0003.51,0003.37
2022-06-02 00:43:00,,0829.5,5.01,0.00,29.0,28.1,00.0,37.8,30.9,19.9,0000.0,0004.26,0003.51,0003.36
2022-06-02 00:44:00,,0829.5,5.00,0.00,29.0,28.1,00.0,37.8,30.9,19.5,0000.0,0004.27,0003.50,0003.33
2022-06-02 00:45:00,,0829.5,5.00,0.00,29.0,28.1,00.0,37.8,30.9,19.4,0000.0,0004.25,0003.47,0003.31
2022-06-02 00:46:00,,0829.6,5.00,0.00,29.0,28.1,00.0,37.8,30.9,19.4,0000.0,0004.31,0003.45,0003.28
2022-06-02 00:47:00,,0829.5,5.00,0.00,29.0,28.1,00.0,37.8,30.9,19.3,0000.0,0004.27,0003.43,0003.25
2022-06-02 00:48:00,,0829.5,5.00,0.00,29.0,28.1,00.0,37.8,30.9,20.0,0000.0,0004.15,0003.40,0003.22
2022-06-02 00:49:00,,0829.5,5.00,0.00,29.0,28.1,00.0,37.9,30.9,20.4,0000.0,0004.18,0003.39,0003.20
2022-06-02 00:50:00,,0829.5,5.00,0.00,29.0,28.1,00.0,37.9,30.9,20.0,0000.0,0004.23,0003.40,0003.21
2022-06-02 00:51:00,,0829.5,5.00,0.00,29.0,28.1,00.0,37.9,30.9,20.0,0000.0,0004.39,0003.42,0003.23
2022-06-02 00:52:00,,0829.5,5.01,0.00,29.0,28.2,00.0,37.9,30.9,20.2,0000.0,0004.41,0003.43,0003.25
2022-06-02 00:53:00,,0829.5,5.00,0.00,29.1,28.2,00.0,37.9,30.9,20.3,0000.0,0005.62,0003.43,0003.26
2022-06-02 00:54:00,,0829.5,4.99,0.00,29.1,28.2,00.0,37.9,30.9,20.4,0000.0,0006.01,0003.44,0003.29
2022-06-02 00:55:00,,0829.5,5.00,0.00,29.1,28.2,00.0,37.9,31.0,20.6,0000.0,0006.02,0003.47,0003.33
2022-06-02 00:56:00,,0829.5,5.00,0.00,29.1,28.2,00.0,37.9,31.0,20.7,0000.0,0006.06,0003.52,0003.39
2022-06-02 00:57:00,,0829.5,5.00,0.00,29.1,28.2,00.0,37.9,31.0,20.3,0000.0,0006.43,0003.56,0003.45
2022-06-02 00:58:00,,0829.5,5.00,0.00,29.1,28.2,00.0,37.9,31.0,20.0,0000.0,0006.81,0003.61,0003.51
2022-06-02 00:59:00,,0829.5,5.00,0.00,29.1,28.2,00.0,38.0,31.0,20.2,0000.0,0006.87,0003.66,0003.56
